TimeEST,TemperatureF,Dew PointF,Humidity,Sea Level PressureIn,VisibilityMPH,Wind Direction,Wind SpeedMPH,Gust SpeedMPH,PrecipitationIn,Events,Conditions,WindDirDegrees,DateUTC
12:15 AM,50.2,47.3,90,29.69,10.0,SSW,17.3,-,N/A,,Overcast,200,2012-12-16 05:15:00
12:35 AM,50.4,47.7,90,29.69,10.0,SSW,15.0,-,N/A,,Overcast,200,2012-12-16 05:35:00
12:55 AM,50.9,47.8,89,29.69,10.0,SSW,16.1,-,N/A,,Overcast,210,2012-12-16 05:55:00
1:15 AM,50.9,48.0,90,29.69,7.0,SSW,12.7,-,N/A,,Overcast,200,2012-12-16 06:15:00
1:35 AM,50.9,48.2,90,29.68,5.0,SSW,13.8,18.4,N/A,,Overcast,200,2012-12-16 06:35:00
1:55 AM,50.5,48.2,92,29.68,7.0,SSW,10.4,-,N/A,,Overcast,200,2012-12-16 06:55:00
2:15 AM,50.9,48.4,91,29.68,10.0,SSW,9.2,-,N/A,,Overcast,200,2012-12-16 07:15:00
2:55 AM,50.7,48.6,92,29.68,5.0,South,8.1,-,N/A,,Overcast,190,2012-12-16 07:55:00
3:15 AM,50.5,48.4,92,29.69,7.0,South,8.1,-,N/A,,Overcast,190,2012-12-16 08:15:00
3:55 AM,50.4,48.4,93,29.68,7.0,SSW,9.2,-,N/A,,Overcast,200,2012-12-16 08:55:00
4:15 AM,50.7,48.6,92,29.68,7.0,South,8.1,-,N/A,,Overcast,190,2012-12-16 09:15:00
4:35 AM,50.5,48.4,92,29.68,10.0,SSW,8.1,-,N/A,,Overcast,200,2012-12-16 09:35:00
4:55 AM,50.4,48.4,93,29.67,7.0,SSW,8.1,-,N/A,,Overcast,210,2012-12-16 09:55:00
5:15 AM,50.7,48.6,92,29.67,7.0,SSW,8.1,-,N/A,,Overcast,210,2012-12-16 10:15:00
5:35 AM,50.9,48.6,92,29.67,10.0,SSW,8.1,-,N/A,,Overcast,210,2012-12-16 10:35:00
6:15 AM,50.0,47.7,92,29.67,10.0,SW,8.1,-,N/A,,Scattered Clouds,220,2012-12-16 11:15:00
6:55 AM,49.3,47.3,93,29.68,10.0,SW,5.8,-,N/A,,Overcast,220,2012-12-16 11:55:00
7:15 AM,48.9,46.9,93,29.68,10.0,SW,9.2,-,N/A,,Mostly Cloudy,220,2012-12-16 12:15:00
7:35 AM,48.2,46.0,92,29.68,7.0,SSW,9.2,-,N/A,,Scattered Clouds,210,2012-12-16 12:35:00
7:55 AM,47.1,45.3,93,29.69,7.0,SW,8.1,-,N/A,,Scattered Clouds,220,2012-12-16 12:55:00
8:15 AM,47.1,45.7,95,29.69,7.0,SW,6.9,-,N/A,,Mostly Cloudy,220,2012-12-16 13:15:00
8:35 AM,47.7,46.0,94,29.69,7.0,SW,6.9,-,N/A,,Overcast,220,2012-12-16 13:35:00
8:55 AM,47.7,46.0,94,29.69,5.0,SSW,8.1,-,N/A,,Mostly Cloudy,210,2012-12-16 13:55:00
9:15 AM,48.0,46.6,95,29.69,7.0,SW,6.9,-,N/A,,Mostly Cloudy,220,2012-12-16 14:15:00
9:35 AM,48.6,46.9,94,29.70,7.0,SW,8.1,-,N/A,,Overcast,220,2012-12-16 14:35:00
9:55 AM,49.1,47.3,93,29.70,7.0,SW,10.4,-,N/A,,Overcast,230,2012-12-16 14:55:00
10:15 AM,49.8,47.7,92,29.70,7.0,SW,9.2,-,N/A,,Overcast,230,2012-12-16 15:15:00
10:35 AM,50.0,47.7,92,29.71,7.0,SW,9.2,-,N/A,,Overcast,230,2012-12-16 15:35:00
10:55 AM,50.0,47.5,91,29.71,7.0,SW,10.4,-,N/A,,Overcast,230,2012-12-16 15:55:00
11:15 AM,50.4,47.3,89,29.71,10.0,WSW,12.7,-,N/A,,Overcast,240,2012-12-16 16:15:00
11:35 AM,50.7,46.6,86,29.70,7.0,WSW,13.8,17.3,N/A,,Overcast,240,2012-12-16 16:35:00
11:55 AM,50.4,45.7,84,29.69,10.0,WSW,12.7,-,N/A,,Overcast,250,2012-12-16 16:55:00
12:35 PM,50.7,45.5,82,29.68,7.0,WSW,11.5,-,N/A,,Overcast,250,2012-12-16 17:35:00
12:55 PM,51.3,45.7,81,29.68,7.0,SW,12.7,-,N/A,,Overcast,230,2012-12-16 17:55:00
1:15 PM,51.6,45.9,81,29.66,10.0,WSW,13.8,19.6,N/A,,Overcast,240,2012-12-16 18:15:00
1:35 PM,51.1,45.5,81,29.66,7.0,WSW,12.7,-,N/A,,Overcast,250,2012-12-16 18:35:00
1:55 PM,51.1,45.5,81,29.65,7.0,WSW,13.8,17.3,N/A,,Overcast,250,2012-12-16 18:55:00
2:15 PM,51.3,45.3,80,29.64,7.0,West,12.7,-,N/A,,Overcast,270,2012-12-16 19:15:00
2:35 PM,50.5,45.3,82,29.64,7.0,West,11.5,-,N/A,,Overcast,280,2012-12-16 19:35:00
2:55 PM,49.6,44.4,82,29.63,10.0,West,13.8,-,N/A,,Overcast,270,2012-12-16 19:55:00
3:15 PM,49.6,43.7,80,29.64,4.0,WSW,10.4,-,N/A,,Haze,250,2012-12-16 20:15:00
3:35 PM,49.5,43.2,79,29.65,7.0,West,10.4,17.3,N/A,,Overcast,260,2012-12-16 20:35:00
3:55 PM,49.5,43.0,78,29.66,5.0,WSW,10.4,-,N/A,,Haze,250,2012-12-16 20:55:00
4:15 PM,49.1,43.2,80,29.67,10.0,WSW,9.2,-,N/A,,Overcast,250,2012-12-16 21:15:00
4:35 PM,48.7,43.3,82,29.67,10.0,West,9.2,-,N/A,,Overcast,260,2012-12-16 21:35:00
4:55 PM,48.0,43.0,83,29.68,7.0,West,9.2,-,N/A,,Overcast,270,2012-12-16 21:55:00
5:15 PM,47.5,42.8,84,29.66,7.0,West,10.4,-,N/A,,Overcast,260,2012-12-16 22:15:00
5:35 PM,46.6,42.3,85,29.66,7.0,West,6.9,-,N/A,,Overcast,270,2012-12-16 22:35:00
5:55 PM,46.2,42.3,86,29.67,10.0,West,8.1,-,N/A,,Overcast,260,2012-12-16 22:55:00
6:15 PM,46.2,41.9,85,29.68,7.0,West,9.2,-,N/A,,Overcast,260,2012-12-16 23:15:00
6:55 PM,45.7,41.5,85,29.69,7.0,WNW,5.8,-,N/A,,Overcast,300,2012-12-16 23:55:00
7:15 PM,45.0,42.3,90,29.69,7.0,WNW,6.9,-,N/A,,Overcast,290,2012-12-17 00:15:00
7:55 PM,44.6,42.3,91,29.69,4.0,WNW,8.1,-,N/A,,Overcast,290,2012-12-17 00:55:00
8:15 PM,43.7,41.5,92,29.71,5.0,NW,13.8,-,N/A,,Overcast,310,2012-12-17 01:15:00
8:35 PM,42.6,40.5,92,29.71,5.0,WNW,9.2,-,N/A,,Overcast,300,2012-12-17 01:35:00
8:55 PM,42.3,39.7,91,29.72,7.0,WNW,9.2,-,N/A,,Overcast,300,2012-12-17 01:55:00
9:15 PM,42.1,39.2,90,29.72,7.0,WNW,6.9,-,N/A,,Overcast,290,2012-12-17 02:15:00
9:35 PM,41.9,39.0,90,29.73,7.0,WNW,9.2,-,N/A,,Overcast,290,2012-12-17 02:35:00
9:55 PM,41.7,39.2,91,29.74,5.0,WNW,10.4,-,N/A,,Overcast,300,2012-12-17 02:55:00
10:15 PM,41.4,39.2,92,29.74,5.0,NW,6.9,-,N/A,,Overcast,310,2012-12-17 03:15:00
10:35 PM,41.0,39.2,93,29.75,5.0,WNW,6.9,-,N/A,,Overcast,290,2012-12-17 03:35:00
10:55 PM,41.0,38.7,91,29.74,7.0,WNW,6.9,-,N/A,,Overcast,290,2012-12-17 03:55:00
11:15 PM,41.0,37.8,88,29.74,7.0,WNW,5.8,-,N/A,,Overcast,290,2012-12-17 04:15:00
11:35 PM,40.6,38.1,91,29.73,7.0,WNW,5.8,-,N/A,,Overcast,290,2012-12-17 04:35:00
11:55 PM,40.5,38.3,92,29.73,5.0,WNW,5.8,-,N/A,,Overcast,290,2012-12-17 04:55:00